Location: Lafig�re
(44.4503°N, 4.0357°E)
Time: 17:02:01
(UTC+00:00)

Cosmos 494 Rocket - Pass Details

Date: 24 September 2020
Orbit: 741 x 771 km, 74.1° (Epoch: 20 October)

Event Time Altitude Azimuth Distance (km) Brightness Sun altitude
Rises 19:18:01 0° 336° (NNW) 3,250 7.9 -18.6°
Reaches altitude 10° 19:20:24 10° 334° (NNW) 2,321 7.1 -19.0°
Maximum altitude 19:25:38 67° 253° (WSW) 838 4.3 -19.9°
Enters shadow 19:29:53 16° 173° (S) 1,950 5.8 -20.6°
